Temperature
21 20 20 20 19 19 20 21 21 21 21 21 21 21 20 19 19 20 19 20 20 20 20 20 20 20 20 20 20 20 20 20 20 20 20 20 20 20 20 20 20 20 19 19 19 19 19 19 19
21 21 21 20 19 19 20 20 21 21 22 22 21 21 20 19 19 19 20 20 20 20 20 20 20 20 20 20 20 20 20 20 20 20 20 20 20 20 20 20 19 19 19 19 19 19 19 19 19
21 21 21 19 20 20 21 20 20 21 21 21 21 20 19 18 19 20 20 20 20 20 20 20 20 20 20 20 20 20 20 20 20 20 20 20 20 20 20 19 19 19 19 19 19 19 19 19 19
22 22 21 19 20 19 20 20 20 21 21 20 20 19 18 18 19 19 20 20 20 20 20 20 19 19 19 19 19 19 20 20 20 20 20 20 19 19 19 19 19 19 19 19 19 19 18 18 18
22 22 20 20 20 19 19 19 20 20 20 19 19 18 18 18 19 19 19 19 19 19 19 19 19 19 19 19 19 19 19 19 19 19 19 19 19 19 19 19 19 19 19 19 19 19 18 18 18
23 21 20 20 20 19 19 19 19 19 19 18 18 18 17 17 18 19 19 19 19 19 18 18 19 19 19 19 19 19 19 19 19 19 19 19 19 19 19 19 19 19 19 19 19 18 18 18 18
22 19 20 20 20 20 19 19 18 18 18 17 18 18 17 17 18 18 18 18 18 18 18 18 18 18 18 18 18 18 19 19 19 19 19 19 19 19 19 19 19 19 19 19 19 18 18 18 18
23 19 20 20 20 20 19 19 18 17 17 17 17 17 16 17 17 18 18 18 18 18 18 18 18 18 18 18 18 18 18 18 18 18 19 19 19 19 19 19 19 19 19 19 19 18 18 18 18
24 19 20 20 20 19 18 18 17 17 17 17 16 16 16 17 17 17 18 17 17 17 17 17 17 17 18 18 18 18 18 18 18 18 18 18 18 18 18 19 19 19 19 19 18 18 18 18 18
23 19 20 20 19 17 17 17 17 17 17 16 16 16 17 17 17 17 17 17 17 17 17 17 17 17 17 17 18 18 18 18 18 18 18 18 18 18 18 18 18 18 18 18 18 18 18 18 18
21 19 19 19 18 18 17 17 17 17 16 16 16 16 17 17 17 17 17 16 16 16 16 16 16 17 17 17 17 17 17 18 18 18 18 18 18 18 18 18 18 18 18 18 18 18 18 18 18
19 19 19 19 19 18 17 17 17 16 16 16 16 16 17 17 16 16 16 16 16 16 16 16 16 16 16 16 17 17 17 17 17 17 17 17 17 17 18 18 18 18 18 18 18 18 18 18 18
19 19 18 18 18 18 17 17 17 16 16 16 16 16 16 16 16 16 16 16 16 15 15 15 15 15 15 16 16 16 16 17 17 17 17 17 17 17 17 17 18 18 18 18 18 18 18 18 18
19 18 18 18 18 18 17 17 17 16 16 16 16 16 16 16 16 16 15 15 15 15 15 15 15 15 15 15 15 15 16 16 16 17 17 17 17 17 17 17 17 17 17 18 18 18 18 18 18
19 18 18 18 18 17 18 16 16 16 16 16 16 16 16 16 16 15 15 15 14 14 14 14 14 14 14 14 15 15 15 15 16 16 16 16 17 17 17 17 17 17 17 17 17 17 18 18 18
19 18 18 18 18 18 18 17 16 16 16 16 16 16 16 15 15 15 15 14 14 14 14 14 14 14 14 14 14 14 15 15 15 15 16 16 16 16 17 17 17 17 17 17 17 17 17 17 18
19 19 19 18 18 18 17 17 16 16 16 16 16 16 16 15 15 15 14 14 14 14 13 13 13 13 13 14 14 14 14 14 14 15 15 15 16 16 16 17 17 17 17 17 17 17 17 17 17
20 19 19 18 17 17 16 16 15 16 16 15 15 15 15 15 15 15 14 14 14 13 13 13 13 13 13 13 13 14 14 14 14 14 15 15 15 15 16 16 16 17 17 17 17 17 17 17 17
20 19 19 18 18 17 16 15 15 15 15 15 15 15 15 15 15 14 14 14 14 13 13 13 13 13 13 13 13 13 13 14 14 14 14 14 15 15 15 16 16 16 16 17 17 17 17 17 17
19 19 18 18 17 16 15 15 15 15 15 15 15 15 15 15 15 14 14 14 13 13 13 13 13 12 12 12 12 12 13 13 13 13 13 14 14 14 15 15 15 16 16 16 16 16 17 16 16
19 18 18 18 16 15 15 15 15 15 15 15 15 15 15 15 15 14 14 14 13 13 13 13 12 12 12 12 12 12 12 13 13 13 13 13 13 14 14 15 15 15 16 16 16 16 16 16 16
19 19 19 18 16 15 16 14 14 14 14 14 15 15 15 15 15 14 14 14 13 13 13 12 12 12 12 12 12 12 12 12 12 12 13 13 13 13 14 14 14 15 15 16 16 16 16 16 16
19 18 18 17 16 15 15 14 13 14 13 13 14 15 15 15 15 14 14 14 13 13 13 12 12 12 12 12 12 11 11 11 12 12 12 13 13 13 13 14 14 14 15 15 15 16 16 16 16
18 16 15 13 13 15 15 14 14 12 13 14 14 15 15 15 15 14 14 14 13 13 12 12 12 12 12 11 11 11 11 11 12 12 12 12 13 13 13 13 14 14 14 15 15 15 15 15 16
16 15 14 15 14 14 15 14 14 14 13 14 15 15 15 15 15 14 14 14 13 13 12 12 12 12 12 11 11 11 11 11 11 11 12 12 12 12 13 13 13 14 14 14 14 15 15 15 15
16 15 15 15 14 13 14 14 14 15 15 15 15 15 15 15 15 14 14 14 13 13 13 12 12 12 11 11 11 11 11 11 11 11 11 12 12 12 12 12 13 13 13 14 14 14 15 15 15
17 14 14 13 14 14 13 14 14 15 15 15 15 15 15 15 15 15 14 14 13 13 13 12 12 12 12 11 11 11 11 11 11 11 11 12 12 12 12 12 12 13 13 13 14 14 14 14 15
17 13 12 13 14 14 13 14 14 15 14 13 14 15 16 15 15 15 14 14 14 13 13 12 12 12 12 11 11 11 11 11 11 11 11 11 11 12 12 12 12 12 13 13 13 13 14 14 14
16 15 12 11 12 13 13 13 14 15 14 13 14 16 16 16 15 15 15 14 14 13 13 13 12 12 12 11 11 11 11 11 11 11 11 11 11 11 11 12 12 12 12 13 13 13 13 13 14
17 16 13 14 13 11 12 12 14 14 14 15 15 16 16 16 15 15 15 14 14 14 13 13 13 12 12 11 11 11 11 11 11 11 11 11 11 11 11 11 11 12 12 12 13 13 13 13 13
Wind_Speed
9 8 3 2 4 5 4 6 4 4 4 3 6 7 7 5 2 1 2 5 6 6 8 11 11 11 11 10 10 9 9 9 8 8 8 8 8 8 7 7 6 6 6 6 5 6 6 6 6
7 4 3 4 5 4 4 6 6 5 3 3 6 7 7 6 3 2 1 3 6 7 8 9 10 10 10 10 9 9 8 8 8 8 8 8 7 7 7 6 6 6 5 5 5 5 5 5 5
6 2 3 4 4 2 2 4 4 5 9 5 5 6 5 5 4 1 2 5 5 6 7 8 10 9 9 9 9 8 8 8 8 8 8 7 7 6 6 6 6 5 5 4 4 4 4 4 4
4 3 4 5 5 3 3 4 5 5 7 9 4 5 5 6 6 2 3 6 5 4 5 7 9 9 9 9 9 9 9 9 9 8 8 7 7 7 6 6 6 5 5 4 4 3 3 3 2
3 4 5 5 4 3 4 5 6 5 4 8 6 5 4 8 9 8 5 4 2 1 3 5 7 8 9 10 10 10 10 9 9 9 9 8 8 7 7 6 6 5 5 4 4 3 3 2 1
4 4 5 3 2 1 3 5 5 6 5 6 7 4 4 7 11 8 7 6 5 4 3 2 3 5 8 9 10 11 11 11 10 10 10 9 9 8 8 7 7 6 6 5 4 4 4 3 2
4 4 4 4 3 1 2 3 4 4 6 7 6 4 3 7 9 7 8 8 8 8 7 7 6 5 5 7 9 11 12 12 12 11 11 10 10 10 9 8 8 7 7 6 6 5 5 4 3
5 5 5 3 3 2 2 3 4 6 5 5 6 5 3 5 6 7 8 9 8 8 7 7 8 8 8 7 7 10 12 13 13 13 12 12 12 11 11 10 9 9 8 8 7 7 6 5 4
4 5 3 3 5 3 2 3 4 4 5 5 6 4 3 4 5 8 8 8 8 8 7 6 7 8 9 8 8 9 10 11 12 13 13 13 12 11 11 11 11 11 10 9 9 8 7 6 4
5 4 2 1 4 6 3 4 4 4 5 5 5 6 6 7 7 9 8 8 8 7 6 5 5 6 7 7 8 8 7 7 8 9 11 11 11 11 11 11 13 13 12 11 10 9 8 6 3
4 5 4 4 5 6 5 4 2 5 5 3 3 3 5 7 8 8 7 5 5 4 5 6 5 6 6 5 6 6 6 6 6 7 8 9 9 9 10 8 10 11 12 10 9 8 6 4 4
6 5 5 4 4 4 5 5 4 4 3 2 2 2 4 7 6 6 5 5 5 5 6 6 5 5 6 6 5 5 5 5 5 5 6 6 5 5 6 7 8 8 8 7 7 6 6 5 6
5 4 5 8 10 7 7 6 5 3 3 4 4 5 5 5 4 4 4 4 5 6 7 7 6 6 5 5 5 5 4 5 6 6 5 5 4 5 5 5 7 8 8 7 6 5 5 5 5
6 8 7 6 6 4 6 4 4 2 3 4 4 4 4 4 4 4 5 5 6 6 7 7 7 5 5 4 4 4 6 7 6 6 6 7 6 5 4 5 4 6 8 8 7 6 4 4 4
7 7 6 3 3 3 5 5 2 3 5 4 4 3 3 4 4 4 4 4 5 6 7 7 8 6 6 6 5 5 7 7 5 6 7 7 7 6 4 5 5 5 8 7 6 5 4 4 4
5 5 2 2 3 3 3 2 2 3 6 4 3 3 3 3 4 4 5 5 5 6 7 7 8 8 8 6 6 5 6 6 5 7 7 8 8 8 5 5 5 6 6 4 4 4 3 4 4
3 2 3 3 4 3 3 3 2 3 5 3 1 1 3 4 5 5 6 6 6 6 7 7 8 8 8 8 6 6 6 5 6 7 6 7 8 7 5 5 5 5 4 5 5 4 4 4 4
5 4 3 4 4 4 3 3 2 3 4 3 1 2 3 5 6 6 6 6 6 7 7 7 8 8 8 7 6 5 5 4 5 5 6 7 7 6 5 5 5 4 4 5 5 5 4 3 3
5 5 3 1 2 3 3 3 3 3 3 3 2 2 4 6 6 6 6 6 7 7 8 8 8 8 7 5 5 5 5 5 5 4 6 7 7 6 4 4 4 5 6 6 7 5 5 4 3
6 5 3 3 3 3 2 2 3 3 4 4 4 4 5 6 7 7 7 6 6 7 8 8 8 8 7 5 5 4 5 5 5 4 5 6 6 6 4 5 5 5 5 7 7 6 5 4 5
3 4 3 3 3 4 3 5 4 3 2 3 4 4 5 6 7 8 8 8 7 8 8 8 8 8 7 7 5 5 4 4 4 4 4 5 6 6 5 5 5 5 6 6 7 8 8 6 5
1 0 3 4 3 1 1 4 6 4 4 5 6 5 7 7 7 7 8 8 8 8 8 8 8 8 7 7 6 6 5 5 5 5 5 7 6 6 6 5 5 6 5 6 7 8 7 7 6
2 3 4 3 4 2 1 2 7 1 5 8 8 7 7 7 7 8 8 8 8 7 7 7 8 7 7 7 7 6 6 5 6 6 7 6 5 5 5 5 5 5 5 7 7 7 8 7 7
5 7 7 6 5 2 2 4 7 4 7 6 5 6 7 7 7 8 7 7 7 7 7 7 7 7 8 8 8 7 8 8 8 8 7 6 5 4 5 5 4 5 5 6 7 7 8 8 7
7 6 5 5 5 4 2 3 8 6 7 6 6 7 8 7 7 7 8 8 8 8 8 7 7 7 8 8 8 8 8 8 7 7 7 6 5 4 5 5 4 4 5 6 6 7 8 8 9
3 6 6 2 3 5 3 5 7 5 4 4 5 5 6 7 7 7 8 7 7 8 7 7 7 7 7 8 8 8 8 6 6 6 6 6 5 5 6 6 5 5 5 5 5 6 7 7 8
4 3 5 6 1 3 6 7 8 2 3 4 5 6 7 8 8 7 7 7 6 7 7 6 6 7 7 7 8 8 8 7 7 7 6 5 5 5 6 6 5 4 4 4 3 4 5 6 7
4 8 5 4 1 4 8 6 5 6 8 8 7 8 9 8 7 7 7 6 6 5 5 5 4 5 6 6 6 6 7 7 7 7 8 8 7 7 7 7 6 5 4 3 3 3 3 4 5
4 4 5 4 4 4 4 7 6 7 7 8 9 9 9 8 8 7 6 6 6 5 5 5 5 5 5 6 6 6 7 7 7 7 8 8 7 7 7 7 6 5 4 3 2 2 3 4 5
3 5 6 4 2 4 3 8 7 7 8 8 9 8 7 7 7 7 6 6 5 5 5 5 4 4 5 5 5 6 6 7 7 8 8 8 8 8 7 7 7 6 5 4 3 2 2 3 4
Wind_Direction
157 139 111 75 53 47 17 342 350 34 57 47 53 70 80 64 64 70 337 131 135 141 159 166 170 170 169 170 168 164 161 160 159 156 153 150 148 146 146 145 142 138 136 134 131 127 119 109 99
134 123 87 61 71 52 356 348 24 33 100 112 55 57 65 56 45 70 116 149 140 146 153 164 172 173 176 176 175 172 170 170 169 167 165 162 159 157 156 155 154 151 148 144 140 135 130 117 105
136 110 88 67 67 92 16 356 34 47 41 43 57 47 55 33 2 304 208 149 139 148 156 170 176 176 179 181 180 180 180 180 179 177 175 172 171 170 170 168 165 164 162 159 152 145 136 126 113
121 64 59 66 63 20 4 346 345 9 31 27 55 57 60 24 347 335 107 129 140 146 163 182 184 184 187 189 191 191 192 191 190 188 187 187 187 188 185 181 179 178 176 176 169 167 159 145 126
74 82 65 57 51 37 20 3 21 32 38 19 35 64 40 3 15 41 63 81 102 130 175 199 201 200 201 201 202 202 202 202 202 201 200 200 201 201 200 200 197 193 192 194 192 195 193 184 159
65 72 81 97 91 55 24 3 12 34 32 17 21 65 57 8 21 25 45 48 41 45 49 12 266 237 227 221 217 215 212 212 211 211 212 212 212 211 212 214 212 208 208 209 210 214 218 221 219
111 90 109 133 131 90 61 37 29 15 34 16 358 60 48 13 13 25 42 51 46 40 36 15 1 333 290 260 244 234 228 224 222 221 221 222 221 220 221 221 223 222 220 221 222 223 230 237 242
127 99 96 131 143 121 21 66 51 31 40 17 22 52 24 351 5 35 46 47 47 38 27 15 4 358 347 324 295 266 250 240 234 231 229 228 229 229 228 226 228 229 229 230 230 230 234 243 250
93 79 128 178 165 141 38 89 69 52 61 48 46 51 31 10 30 41 42 36 34 30 17 9 1 355 348 337 322 302 281 265 251 245 242 235 233 235 235 232 232 235 236 236 236 235 236 240 250
75 107 151 131 139 131 93 77 95 80 57 53 55 43 39 40 44 44 39 29 22 11 360 359 350 344 341 336 331 327 312 294 274 258 250 240 231 230 234 237 240 240 240 240 239 237 237 236 231
78 116 120 86 107 116 105 83 59 110 68 58 72 31 32 46 45 43 32 19 4 349 346 344 336 337 335 327 329 326 319 312 293 275 263 250 238 233 234 235 245 249 247 243 242 241 230 213 211
87 62 90 113 105 94 108 112 84 72 111 104 95 56 46 45 37 29 17 2 350 350 343 336 333 333 332 331 324 315 319 313 305 296 285 268 247 231 227 228 231 236 239 232 225 218 217 214 217
85 92 64 87 85 85 89 86 100 79 84 75 74 62 56 49 30 15 6 0 355 347 339 335 331 330 330 330 323 326 314 307 303 298 294 276 258 243 231 233 229 230 227 221 216 210 210 212 216
98 96 95 81 80 80 97 83 89 108 98 81 71 58 45 33 15 11 7 357 347 338 332 328 328 328 331 322 311 305 306 302 301 297 287 277 268 262 240 237 233 232 227 220 215 207 205 210 207
98 90 74 71 85 121 106 63 58 142 109 89 64 43 32 17 11 2 345 335 330 326 327 328 326 339 332 320 310 310 302 303 298 292 288 281 268 259 253 240 234 230 230 219 211 206 201 208 212
87 94 113 211 147 152 126 169 195 136 118 102 58 33 18 350 344 338 334 329 328 327 327 327 336 335 329 323 313 306 301 297 292 290 288 283 275 262 248 241 238 230 221 210 202 201 201 212 214
84 144 193 191 178 149 157 190 196 139 132 128 77 7 338 333 331 325 324 322 324 322 322 324 328 329 326 322 315 307 302 296 293 292 287 283 276 267 256 241 235 228 212 207 214 202 195 205 216
199 193 193 199 179 138 156 182 163 141 148 162 205 289 309 315 304 306 314 317 322 324 325 324 327 329 327 324 321 316 313 306 303 298 292 288 282 274 260 249 236 222 216 212 208 204 194 200 206
150 152 162 171 131 136 173 186 198 171 168 194 232 273 294 294 296 306 312 320 327 330 332 327 328 327 334 334 331 325 320 313 309 300 299 297 292 283 264 256 242 220 218 219 207 198 195 198 170
100 119 120 73 61 104 134 261 246 210 212 220 228 253 279 296 310 314 315 320 323 322 325 325 327 325 328 323 310 294 292 294 289 294 306 301 296 289 276 251 245 231 223 222 210 194 184 191 175
75 145 165 152 68 58 71 314 253 245 228 232 239 254 277 285 296 306 312 312 318 321 323 327 324 324 324 326 322 319 313 311 317 318 312 305 304 294 277 261 245 235 225 225 217 203 191 191 189
147 239 146 136 116 299 126 294 284 248 263 257 255 268 280 288 293 300 307 311 315 314 318 323 325 325 327 332 333 334 328 318 304 303 297 299 298 296 288 270 250 238 228 228 224 212 204 188 190
139 57 85 105 127 51 28 213 291 306 263 261 254 258 270 279 287 297 302 301 308 314 319 323 329 330 334 338 336 332 326 312 307 308 305 306 300 296 296 283 260 245 236 231 226 214 206 199 192
107 69 56 50 71 350 246 186 284 240 231 253 246 251 269 281 293 299 302 308 312 319 324 330 335 332 337 341 341 339 331 325 326 326 323 317 308 301 303 299 277 257 245 238 228 217 210 208 201
65 76 30 4 8 268 270 215 255 258 232 227 234 249 269 281 289 296 304 310 314 320 324 328 332 329 335 340 341 339 334 331 328 326 324 323 318 311 310 305 295 277 256 244 231 220 215 209 204
78 119 141 203 254 292 318 253 259 268 251 235 236 254 278 286 285 287 289 294 304 312 320 326 328 325 330 336 336 337 340 337 333 329 327 324 317 307 311 307 296 289 280 260 236 224 220 212 210
110 96 150 132 174 296 295 292 305 256 269 257 260 271 275 280 283 285 291 296 301 306 311 316 321 323 330 335 335 337 342 345 343 340 339 335 329 323 325 321 312 300 296 288 256 233 224 214 212
104 138 94 99 105 307 305 293 270 269 258 257 256 258 266 277 282 287 291 294 297 297 303 317 321 322 326 335 339 344 342 344 344 347 348 345 339 336 334 333 326 318 306 297 275 251 237 217 213
107 85 97 103 141 156 298 284 232 236 242 240 246 248 255 268 276 279 283 289 296 304 309 313 320 325 329 334 337 344 343 345 347 348 346 343 340 341 342 341 341 337 333 323 294 266 242 225 220
162 154 144 142 202 167 199 270 267 247 249 237 245 252 256 265 270 273 279 291 300 305 307 306 307 314 317 325 336 340 340 343 346 343 341 342 344 343 342 344 348 348 344 338 327 299 270 234 225
Height
1526 1527 1528 1530 1532 1541 1544 1539 1533 1531 1532 1533 1532 1532 1534 1538 1541 1545 1541 1540 1542 1544 1546 1547 1549 1551 1552 1553 1554 1555 1556 1556 1557 1557 1558 1558 1558 1558 1558 1559 1559 1559 1559 1559 1560 1560 1560 1560 1560
1526 1527 1530 1531 1539 1553 1549 1539 1536 1534 1534 1533 1533 1535 1536 1539 1540 1541 1541 1542 1544 1545 1547 1548 1550 1551 1552 1553 1554 1555 1556 1556 1556 1557 1557 1557 1558 1558 1558 1558 1558 1559 1559 1559 1559 1560 1560 1560 1560
1527 1529 1531 1534 1544 1552 1548 1541 1538 1536 1536 1535 1536 1538 1540 1543 1543 1543 1543 1544 1545 1547 1548 1549 1550 1552 1553 1553 1554 1555 1555 1555 1556 1556 1556 1557 1557 1557 1557 1557 1558 1558 1558 1559 1559 1559 1559 1560 1560
1529 1531 1533 1540 1548 1547 1545 1542 1539 1538 1537 1538 1538 1541 1544 1546 1546 1546 1545 1546 1546 1548 1549 1550 1551 1552 1553 1553 1554 1554 1554 1555 1555 1555 1556 1556 1556 1556 1557 1557 1557 1557 1558 1558 1558 1558 1559 1559 1560
1529 1531 1538 1547 1548 1546 1544 1542 1540 1540 1541 1542 1541 1544 1547 1548 1547 1547 1547 1547 1548 1549 1550 1551 1551 1552 1552 1553 1553 1553 1554 1554 1554 1554 1555 1555 1555 1555 1555 1556 1556 1556 1557 1557 1557 1558 1558 1559 1559
1530 1532 1546 1552 1549 1547 1546 1545 1544 1544 1545 1545 1545 1547 1550 1550 1549 1548 1548 1548 1548 1549 1550 1550 1551 1551 1552 1552 1552 1553 1553 1553 1553 1553 1553 1554 1554 1554 1554 1555 1555 1555 1555 1556 1556 1557 1557 1558 1559
1531 1536 1546 1549 1550 1549 1548 1547 1548 1548 1548 1548 1548 1549 1551 1551 1550 1549 1549 1549 1549 1549 1549 1550 1550 1550 1550 1550 1551 1551 1551 1551 1551 1551 1552 1552 1552 1553 1553 1553 1554 1554 1554 1554 1555 1555 1556 1557 1558
1530 1535 1545 1548 1549 1550 1549 1549 1550 1550 1551 1551 1550 1552 1553 1553 1551 1550 1550 1549 1549 1549 1549 1549 1548 1549 1549 1548 1548 1549 1549 1549 1549 1549 1550 1550 1550 1551 1551 1552 1552 1552 1553 1553 1553 1554 1555 1555 1556
1530 1540 1548 1547 1548 1549 1549 1550 1552 1553 1552 1553 1554 1554 1555 1554 1553 1552 1551 1550 1549 1549 1549 1548 1547 1546 1546 1546 1546 1546 1546 1546 1546 1547 1547 1548 1548 1548 1549 1549 1550 1551 1551 1551 1552 1552 1553 1554 1555
1531 1543 1544 1543 1544 1547 1549 1550 1553 1554 1555 1556 1556 1556 1556 1555 1554 1553 1552 1551 1550 1549 1548 1547 1547 1545 1544 1544 1543 1543 1542 1542 1543 1543 1544 1545 1545 1546 1546 1547 1548 1548 1549 1550 1550 1551 1551 1552 1553
1533 1541 1542 1544 1545 1547 1549 1552 1553 1554 1557 1558 1558 1558 1557 1556 1555 1554 1553 1552 1551 1550 1548 1547 1545 1544 1543 1541 1540 1540 1539 1539 1539 1540 1540 1541 1542 1542 1543 1544 1545 1546 1547 1548 1548 1549 1550 1551 1552
1536 1541 1542 1545 1546 1548 1550 1552 1554 1555 1558 1559 1558 1558 1558 1557 1556 1555 1554 1553 1551 1550 1548 1546 1544 1542 1540 1539 1538 1537 1536 1535 1535 1536 1537 1537 1538 1539 1540 1541 1542 1543 1544 1545 1546 1547 1548 1549 1550
1539 1543 1545 1546 1547 1549 1551 1553 1555 1557 1559 1559 1559 1559 1558 1558 1557 1556 1554 1553 1551 1549 1546 1544 1542 1540 1538 1536 1534 1533 1532 1532 1532 1532 1532 1533 1534 1535 1536 1537 1539 1540 1542 1542 1543 1545 1545 1546 1548
1541 1544 1547 1549 1550 1552 1553 1556 1557 1559 1559 1560 1560 1559 1559 1558 1557 1556 1554 1552 1550 1547 1545 1542 1540 1537 1535 1533 1531 1530 1528 1528 1528 1528 1528 1529 1530 1531 1532 1533 1535 1536 1538 1539 1541 1542 1543 1544 1546
1543 1547 1551 1552 1552 1554 1555 1559 1558 1559 1559 1560 1560 1560 1559 1558 1557 1556 1554 1551 1549 1546 1543 1540 1538 1535 1532 1530 1528 1527 1525 1524 1524 1524 1524 1525 1526 1526 1527 1529 1530 1532 1534 1536 1537 1539 1540 1542 1543
1545 1551 1556 1553 1553 1554 1558 1563 1560 1559 1559 1560 1560 1560 1559 1558 1557 1555 1553 1551 1548 1545 1542 1538 1535 1532 1529 1527 1525 1523 1522 1520 1520 1520 1520 1520 1521 1522 1523 1524 1525 1528 1529 1531 1533 1535 1537 1539 1540
1550 1556 1556 1555 1553 1554 1557 1560 1559 1559 1559 1559 1560 1559 1559 1558 1556 1555 1552 1550 1547 1543 1540 1536 1533 1530 1527 1524 1521 1519 1518 1517 1516 1516 1516 1516 1516 1517 1518 1519 1521 1523 1524 1526 1529 1531 1533 1535 1537
1553 1554 1554 1555 1553 1555 1558 1559 1558 1559 1559 1559 1559 1559 1558 1557 1556 1554 1551 1549 1546 1542 1539 1535 1531 1528 1525 1522 1519 1517 1515 1513 1512 1512 1511 1511 1512 1513 1513 1514 1516 1518 1520 1522 1524 1526 1529 1531 1534
1543 1550 1554 1554 1552 1555 1558 1560 1559 1558 1559 1559 1558 1558 1557 1556 1555 1553 1551 1548 1544 1541 1537 1533 1530 1526 1523 1519 1516 1514 1512 1510 1509 1508 1508 1508 1508 1508 1509 1509 1511 1513 1514 1517 1519 1521 1524 1526 1530
1546 1552 1555 1555 1553 1557 1560 1560 1558 1558 1558 1557 1557 1557 1556 1555 1554 1552 1550 1547 1543 1540 1536 1532 1529 1525 1522 1518 1515 1512 1509 1507 1506 1505 1504 1504 1504 1504 1504 1505 1506 1508 1510 1511 1514 1516 1518 1521 1524
1549 1553 1554 1557 1558 1559 1562 1563 1559 1557 1556 1556 1556 1556 1555 1554 1552 1551 1548 1545 1542 1539 1535 1532 1528 1524 1521 1517 1514 1511 1508 1505 1504 1502 1501 1500 1500 1500 1500 1500 1501 1503 1504 1506 1508 1511 1513 1515 1519
1553 1548 1550 1555 1563 1568 1565 1576 1561 1557 1556 1555 1554 1554 1553 1553 1551 1549 1547 1544 1541 1538 1535 1531 1527 1524 1520 1517 1513 1510 1506 1504 1501 1499 1498 1497 1496 1495 1495 1496 1496 1498 1499 1501 1503 1505 1507 1510 1513
1550 1549 1552 1555 1562 1570 1569 1575 1567 1558 1557 1554 1552 1552 1552 1551 1550 1548 1546 1543 1541 1537 1534 1531 1527 1524 1520 1516 1513 1509 1506 1503 1500 1498 1495 1494 1493 1492 1492 1491 1492 1493 1494 1496 1497 1499 1502 1504 1507
1548 1554 1558 1565 1570 1578 1569 1575 1569 1562 1555 1551 1550 1550 1550 1550 1549 1547 1545 1543 1540 1537 1534 1530 1527 1523 1519 1516 1512 1509 1505 1502 1499 1496 1494 1492 1490 1489 1488 1488 1488 1488 1489 1490 1492 1494 1496 1499 1501
1552 1564 1579 1578 1585 1580 1568 1571 1566 1552 1549 1548 1548 1548 1548 1548 1547 1545 1544 1541 1539 1536 1533 1529 1526 1523 1519 1515 1512 1509 1505 1501 1498 1495 1492 1490 1488 1487 1486 1485 1484 1484 1485 1485 1487 1488 1490 1493 1495
1556 1563 1580 1585 1588 1582 1570 1571 1558 1548 1546 1546 1547 1547 1547 1546 1546 1544 1542 1540 1538 1535 1532 1529 1526 1522 1519 1515 1512 1508 1505 1501 1498 1495 1491 1489 1486 1485 1483 1482 1482 1481 1481 1481 1482 1483 1485 1487 1490
1557 1565 1566 1579 1579 1584 1577 1566 1553 1546 1546 1545 1545 1545 1545 1545 1544 1543 1541 1539 1537 1534 1532 1529 1525 1522 1519 1515 1512 1508 1505 1501 1498 1494 1491 1488 1485 1483 1482 1480 1479 1478 1478 1478 1478 1479 1480 1482 1484
1553 1562 1572 1579 1584 1588 1581 1572 1563 1548 1546 1544 1543 1543 1543 1543 1542 1541 1540 1538 1536 1534 1531 1528 1525 1522 1519 1515 1512 1508 1505 1501 1498 1494 1491 1487 1485 1482 1480 1478 1476 1476 1475 1475 1475 1475 1476 1478 1480
1558 1563 1572 1581 1582 1589 1589 1576 1549 1545 1542 1541 1540 1540 1541 1541 1540 1539 1538 1537 1535 1533 1530 1528 1525 1522 1519 1515 1512 1508 1505 1501 1498 1494 1491 1487 1484 1481 1478 1476 1474 1473 1472 1472 1472 1472 1473 1474 1476
1552 1557 1568 1577 1579 1585 1588 1575 1541 1540 1538 1538 1538 1538 1539 1539 1538 1538 1537 1535 1534 1532 1529 1527 1524 1521 1518 1515 1512 1508 1505 1501 1498 1494 1491 1487 1484 1481 1478 1475 1473 1472 1471 1470 1470 1470 1470 1471 1472